Home > Weather > Kalamata > Past weeks

Flag for Greece Past Weather in Kalamata, Greece — Yesterday and Last 2 Weeks

Now
86 °F

Passing clouds.


Feels Like: 87 °F
Forecast: 74 / 89 °F
Wind: 7 mph from South

Location: Kalamata Airport

Current Time: Jun 30, 2016 at 1:27:58 PM

Latest Report: Jun 30, 2016 at 12:50 PM


Visibility: N/A

Pressure: 29.98 "Hg

Humidity: 46%

Dew Point: 63 °F

Location of KalamataLocation

Past Weather in Kalamata — Graph

°F

Kalamata Temperature Yesterday

Maximum temperature yesterday: 84 °F (at 12:50 PM)
Minimum temperature yesterday: 70 °F (at 2:50 AM)
Average temperature yesterday: 77 °F

High & Low Weather Summary for the Past Weeks

 TemperatureHumidityPressure
High100 °F (Jun 19, 1:20 PM)100% (Jun 25, 7:50 PM)30.04 "Hg (Jun 25, 7:50 PM)
Low61 °F (Jun 16, 5:50 AM)18% (Jun 19, 1:20 PM)29.74 "Hg (Jun 25, 2:50 AM)
Average79 °F60%29.87 "Hg
* Reported Jun 15 11:20 AM — Jun 30 11:50 AM, Kalamata, Weather by CustomWeather, © 2016

Note: Actual official high and low records may vary slightly from our data, if they occured in-between our weather recording intervals... More about our weather records

Advertising

Kalamata Weather History for the Previous 24 Hours

Scroll right to see more
 ConditionsComfort  
Time TempWeatherWind HumidityBarometerVisibility
11:50 AM
Thu, Jun 30
86 °FPassing clouds.7 mph46%29.98 "HgN/A
11:20 AM86 °FPassing clouds.5 mph46%29.98 "HgN/A
10:50 AM86 °FPassing clouds.3 mph43%29.98 "HgN/A
10:20 AM86 °FSunny.No wind43%29.95 "Hg10 mi
9:50 AM82 °FSunny.No wind51%29.98 "Hg10 mi
9:20 AM79 °FSunny.No wind61%29.95 "Hg10 mi
8:50 AM77 °FSunny.No wind65%29.98 "Hg10 mi
8:20 AM75 °FSunny.No wind69%29.95 "Hg10 mi
7:50 AM70 °FSunny.No wind83%29.95 "Hg10 mi
7:20 AM68 °FSunny.No wind83%29.95 "Hg10 mi
6:50 AM64 °FClear.No wind88%29.95 "Hg10 mi
6:20 AM64 °FClear.No wind88%29.95 "Hg10 mi
5:50 AM64 °FClear.No wind94%29.95 "Hg10 mi
5:20 AM64 °FClear.No wind88%29.95 "Hg10 mi
4:50 AM64 °FClear.No wind94%29.92 "Hg10 mi
4:20 AM64 °FClear.No wind94%29.92 "Hg10 mi
3:50 AM66 °FClear.No wind88%29.92 "Hg10 mi
3:20 AM66 °FPassing clouds.No wind88%29.92 "HgN/A
2:50 AM66 °FPassing clouds.No wind88%29.92 "HgN/A
2:20 AM66 °FPassing clouds.No wind94%29.92 "HgN/A
1:50 AM68 °FPassing clouds.No wind88%29.92 "HgN/A
1:20 AM68 °FPassing clouds.No wind88%29.92 "HgN/A
12:50 AM70 °FPassing clouds.No wind83%29.92 "HgN/A
12:20 AM70 °FPassing clouds.No wind88%29.92 "HgN/A
11:50 PM
Wed, Jun 29
70 °FPassing clouds.No wind83%29.92 "HgN/A
11:20 PM72 °FPassing clouds.No wind78%29.92 "HgN/A
10:50 PM72 °FPassing clouds.No wind78%29.92 "HgN/A
10:20 PM72 °FPassing clouds.No wind78%29.89 "HgN/A
9:50 PM75 °FPassing clouds.No wind65%29.89 "HgN/A
9:20 PM75 °FPassing clouds.No wind65%29.89 "HgN/A
8:50 PM77 °FPassing clouds.No wind61%29.86 "HgN/A
8:20 PM79 °FPassing clouds.No wind54%29.86 "HgN/A
7:50 PM81 °FScattered clouds.5 mph48%29.86 "HgN/A
7:20 PM82 °FScattered clouds.6 mph48%29.86 "HgN/A
6:50 PM82 °FScattered clouds.7 mph48%29.86 "HgN/A
6:20 PM81 °FScattered clouds.6 mph54%29.86 "HgN/A
5:50 PM81 °FScattered clouds.7 mph58%29.86 "HgN/A
5:20 PM82 °FScattered clouds.9 mph51%29.86 "HgN/A
4:50 PM82 °FScattered clouds.10 mph51%29.86 "HgN/A
4:20 PM82 °FSunny.12 mph51%29.86 "Hg10 mi
3:50 PM82 °FScattered clouds.13 mph51%29.86 "HgN/A
3:20 PM84 °FPassing clouds.10 mph51%29.86 "HgN/A
2:50 PM84 °FPassing clouds.9 mph48%29.86 "HgN/A
2:20 PM84 °FPassing clouds.10 mph48%29.86 "HgN/A
1:50 PM84 °FPassing clouds.9 mph48%29.86 "HgN/A
1:20 PM82 °FPassing clouds.8 mph55%29.86 "HgN/A
Weather by CustomWeather, © 2016

See weather overviewHow to use our weather pages